Theta_e
281 280 280 280 280 279 279 278 277 277 277 276 276 275 275 275 273 273 273 274 274 276 277 278 279 280 282 283 285 285 285 286
280 280 279 279 278 278 277 277 276 276 276 274 274 273 273 272 271 271 271 272 273 275 276 276 277 279 281 283 284 284 284 285
280 279 278 277 276 276 276 276 275 275 274 272 272 271 270 269 269 270 269 271 272 274 275 276 277 278 281 281 282 283 283 284
279 279 277 276 275 274 274 274 274 272 271 270 270 269 268 267 267 268 268 269 271 273 273 274 276 277 281 281 281 283 283 283
279 278 277 276 274 272 272 272 271 271 269 268 268 267 266 265 263 264 266 268 270 271 272 273 275 280 280 280 280 282 283 284
278 277 276 273 272 270 271 271 270 268 265 262 265 264 262 260 260 261 263 266 266 269 271 272 276 279 280 280 280 282 282 283
279 278 276 274 268 268 264 266 268 263 257 258 258 259 259 257 258 259 261 263 265 266 269 271 275 280 282 281 280 280 280 281
279 277 277 272 270 262 261 264 260 259 256 255 254 256 256 258 258 260 261 263 263 265 269 269 272 279 281 280 279 279 279 280
279 277 274 271 266 262 262 258 257 257 255 255 254 255 257 257 258 259 261 261 266 266 267 269 271 279 280 279 277 277 278 279
278 273 269 266 263 261 257 255 256 256 256 255 255 256 255 258 258 259 263 266 265 269 267 269 269 277 279 278 276 276 275 277
271 269 266 262 262 262 258 258 257 257 258 257 257 257 256 257 260 260 263 268 269 270 268 268 269 275 278 278 275 274 274 274
269 268 266 262 263 261 260 260 260 262 261 259 259 261 261 263 264 265 265 266 264 267 268 268 269 270 277 277 274 274 273 273
268 264 262 263 265 262 263 261 262 263 263 262 262 266 266 265 267 267 267 267 266 266 267 268 269 272 275 276 276 276 273 271
267 263 262 264 266 266 263 263 263 263 261 260 263 267 267 266 266 266 266 266 266 267 266 267 268 269 275 275 275 275 273 273
266 264 263 265 267 267 264 264 261 260 261 263 263 264 265 267 267 266 264 264 266 267 266 266 267 270 272 273 272 273 272 271
266 265 264 265 266 265 265 263 261 261 263 265 264 262 264 266 265 267 267 268 264 263 266 267 267 272 275 273 270 271 271 266
266 265 264 264 263 263 263 262 261 262 263 262 263 262 263 262 262 269 271 272 272 273 271 270 273 275 275 273 271 272 270 258
266 265 264 263 262 261 260 260 259 261 262 261 262 261 259 260 259 257 263 269 270 271 272 272 272 274 274 272 270 269 265 256
265 264 264 263 261 259 258 259 259 258 260 260 260 259 257 258 258 257 256 256 259 265 269 270 271 272 272 271 265 258 259 253
264 263 262 261 259 258 258 259 257 259 259 258 257 257 257 256 257 256 255 254 253 254 262 262 269 270 269 268 254 252 254 253
Wind_Speed
10 9 6 7 6 6 7 6 5 5 6 6 6 7 7 8 10 10 10 11 12 12 13 13 12 12 12 10 11 11 9 8
10 9 8 7 6 6 6 5 5 5 6 7 7 8 8 8 10 10 11 12 11 11 12 12 12 12 11 12 12 13 12 12
12 11 9 7 6 6 6 5 5 5 6 7 8 8 9 10 11 11 11 11 12 11 11 11 11 11 11 12 13 13 13 13
12 11 9 7 6 7 5 5 5 5 7 7 8 9 9 9 11 11 10 10 11 11 11 11 11 10 13 13 13 12 11 12
12 11 10 9 7 6 5 4 5 5 7 6 7 8 8 7 8 8 8 8 10 10 9 10 10 10 11 12 12 13 11 11
15 12 11 10 7 6 5 4 4 5 6 3 5 5 5 6 6 7 7 7 7 8 9 10 8 9 12 12 11 12 13 12
16 15 15 12 9 6 4 4 5 4 4 3 4 5 5 6 7 6 6 6 6 7 8 9 9 18 19 16 11 12 11 12
19 17 15 13 12 8 6 5 4 5 3 3 4 4 5 5 6 6 6 6 6 6 8 8 9 18 19 19 10 10 10 11
15 14 13 11 9 9 6 5 4 5 4 2 3 4 5 5 6 6 4 4 6 6 7 6 8 19 19 19 9 9 11 11
15 14 12 13 11 11 7 5 4 5 4 1 0 3 3 4 6 4 4 5 4 6 7 8 9 20 20 15 9 10 10 11
15 14 14 10 12 12 8 6 6 6 5 4 2 0 2 3 5 4 3 5 6 8 8 8 10 19 20 17 8 10 9 9
15 16 15 13 12 11 9 8 6 6 5 3 2 1 2 3 2 3 4 5 5 6 7 7 9 11 21 20 8 8 8 8
15 13 12 12 13 11 10 7 7 6 6 2 1 0 1 2 3 4 5 6 6 6 7 7 8 15 18 21 19 16 8 9
15 15 10 11 11 12 8 10 8 7 5 2 1 2 1 3 3 3 4 4 5 6 6 7 8 7 16 19 20 17 9 8
16 15 14 11 11 8 12 10 8 7 6 4 3 2 1 2 2 2 2 2 4 5 5 6 7 7 8 8 9 13 9 12
15 14 14 12 9 10 11 11 9 7 5 5 4 3 1 1 2 1 2 2 0 3 2 5 7 9 18 18 11 10 13 9
12 13 14 12 10 10 10 11 10 8 5 3 3 2 3 1 2 5 5 8 8 10 8 2 13 19 21 22 21 20 20 5
15 13 14 13 11 9 9 9 8 9 7 4 3 1 2 2 2 3 5 7 8 12 12 13 13 17 19 20 19 20 15 4
14 13 14 13 12 9 9 9 7 5 7 5 4 4 3 2 2 2 1 3 4 8 11 13 14 14 16 18 12 7 8 3
13 12 13 12 9 10 10 10 8 6 4 4 3 2 3 2 1 0 0 1 3 4 6 6 13 12 13 14 3 2 4 4
Wind_Direction
148 148 144 145 137 110 99 91 66 47 39 30 21 8 2 358 354 347 339 338 336 340 343 343 344 346 352 351 348 347 352 350
154 148 148 137 132 112 96 83 58 41 39 32 16 6 4 1 353 348 338 336 336 339 339 341 342 344 350 353 351 348 352 351
154 152 149 141 136 116 101 82 56 51 47 29 18 10 7 1 355 348 343 339 336 341 341 340 341 337 348 357 353 348 351 352
156 161 154 142 138 116 101 86 67 52 49 33 17 10 5 355 352 347 338 339 344 347 349 340 335 334 1 1 351 348 348 353
163 164 154 148 140 126 110 90 82 73 60 34 16 9 357 345 338 330 326 340 343 344 341 338 327 350 350 355 354 354 350 352
169 163 153 143 139 127 117 108 101 86 70 19 6 2 340 339 332 322 325 339 329 344 349 346 342 354 357 358 354 355 359 358
168 162 164 160 153 145 142 118 114 99 80 3 4 3 348 335 332 323 328 336 340 348 351 356 356 356 360 6 355 0 357 352
175 168 167 159 154 155 159 125 117 105 71 27 11 357 341 335 337 326 340 339 335 344 353 351 345 0 3 11 351 358 352 350
166 161 149 140 135 131 133 125 135 109 91 32 8 349 344 345 337 325 321 336 346 339 344 346 350 360 7 14 357 356 358 351
162 144 138 140 140 133 128 137 144 127 127 204 24 344 343 355 336 313 336 344 339 357 359 4 355 356 10 17 1 355 358 351
141 135 137 143 143 137 150 158 159 153 169 183 210 75 338 312 321 299 325 1 5 17 11 2 0 350 9 10 358 349 352 353
144 151 152 148 146 147 153 183 166 153 152 167 204 236 272 313 318 318 356 358 357 19 9 4 359 343 8 4 4 347 349 348
141 143 146 152 151 153 170 170 152 146 134 164 135 70 30 8 349 16 15 20 9 20 14 358 352 351 360 5 3 354 350 343
145 141 151 163 159 158 164 159 151 135 132 148 133 101 21 64 30 31 17 27 17 15 10 353 343 333 350 359 1 353 355 335
145 152 158 171 167 154 154 158 143 136 146 157 145 103 75 68 59 52 10 356 14 360 6 346 334 334 354 8 5 351 346 358
155 160 162 166 157 150 159 149 147 138 156 155 142 139 53 62 213 129 291 284 76 285 317 348 344 353 5 11 1 353 5 360
156 153 157 160 152 154 154 153 147 149 159 166 153 163 138 101 357 1 16 6 12 9 9 318 354 0 9 17 10 10 13 5
163 154 155 157 160 156 152 152 154 154 155 149 143 162 134 115 78 4 339 357 9 9 6 7 5 4 10 18 18 21 29 23
151 152 156 158 162 155 151 153 152 145 145 149 159 154 140 146 146 132 35 329 316 350 359 6 0 8 9 14 9 6 17 16
147 152 155 156 159 153 151 156 154 147 145 144 131 131 144 134 110 145 97 301 294 327 350 347 353 0 17 15 50 347 348 350